Weather History for Fort Drum, NY

Change the Weather History Date:

Sunday, November 10, 2013

  Actual Average Record
Temperature  
Mean Temperature 40 °F -  
Max Temperature 45 °F 42 °F 64 °F (2002)
Min Temperature 36 °F 28 °F 17 °F (2004)
Degree Days  
Heating Degree Days 24    
Moisture  
Dew Point 37 °F    
Average Humidity 83    
Maximum Humidity 100    
Minimum Humidity 68    
Precipitation  
Precipitation 0.00 in - - ()
Sea Level Pressure  
Sea Level Pressure 29.78 in    
Wind  
Wind Speed 12 mph (WSW)    
Max Wind Speed 20 mph    
Max Gust Speed 30 mph    
Visibility 10 miles    
Events Rain    
Averages and records for this station are not official NWS values.
T = Trace of Precipitation, MM = Missing Value Source: NWS Daily Summary

Daily Weather History Graph

Daily Weather History Graph

Search for Another Location

Airport:

Trip Planner

Search our weather history database for the weather conditions in past years. The results will help you decide how hot, cold, wet, or windy it might be!

Date:

Astronomy

Nov. 10, 2013 Rise Set
Actual Time 6:51 AM EST 4:41 PM EST
Civil Twilight 6:20 AM EST 5:12 PM EST
Nautical Twilight 5:46 AM EST 5:46 PM EST
Astronomical Twilight 5:12 AM EST 6:20 PM EST
Moon 12:59 PM EST (11/10) No Moon Set
Length of Visible Light 10h 51m
Length of Day
9h 49m
First Quarter, 55% of the Moon is Illuminated
Nov 10
First Quarter
Nov 17
Full
Nov 25
Last Quarter
Dec 2
New
Dec 9
First Quarter

Hourly Weather History & Observations

Time (EST) Temp. Windchill Dew Point Humidity Pressure Visibility Wind Dir Wind Speed Gust Speed Precip Events Conditions
12:18 AM 41.0 °F 33.5 °F 37.4 °F 87% 29.75 in 10.0 mi South 13.8 mph 23.0 mph N/A Rain Light Rain
12:58 AM 39.9 °F 33.9 °F 38.1 °F 93% 29.77 in 10.0 mi SSE 9.2 mph - 0.00 in Rain Light Rain
1:54 AM 41.0 °F 33.9 °F 41.0 °F 100% 29.73 in 10.0 mi South 12.7 mph - N/A   Overcast
1:58 AM 41.2 °F 34.1 °F 40.5 °F 97% 29.75 in 10.0 mi South 12.7 mph - 0.00 in   Overcast
2:02 AM 41.0 °F 34.3 °F 41.0 °F 100% 29.72 in 10.0 mi South 11.5 mph - N/A   Light Drizzle
2:47 AM 42.8 °F 37.0 °F 41.0 °F 93% 29.72 in 10.0 mi SW 10.4 mph 20.7 mph N/A   Light Drizzle
2:49 AM 42.8 °F 36.2 °F 41.0 °F 93% 29.72 in 10.0 mi SW 12.7 mph 20.7 mph N/A   Overcast
2:58 AM 43.2 °F 37.4 °F 41.2 °F 93% 29.74 in 10.0 mi SW 10.4 mph - 0.00 in   Mostly Cloudy
3:02 AM 42.8 °F 37.0 °F 41.0 °F 93% 29.72 in 10.0 mi SW 10.4 mph - N/A Rain Light Rain
3:21 AM 42.8 °F 38.0 °F 41.0 °F 93% 29.72 in 10.0 mi SW 8.1 mph - N/A   Mostly Cloudy
3:41 AM 42.8 °F 38.6 °F 41.0 °F 93% 29.72 in 10.0 mi SW 6.9 mph - N/A   Mostly Cloudy
3:51 AM 42.8 °F 39.3 °F 42.8 °F 100% 29.71 in 10.0 mi SW 5.8 mph - N/A   Overcast
3:56 AM 42.8 °F 38.0 °F 42.8 °F 100% 29.71 in 10.0 mi SW 8.1 mph - N/A   Mostly Cloudy
3:58 AM 42.8 °F 38.0 °F 42.8 °F 100% 29.73 in 10.0 mi SW 8.1 mph - 0.00 in   Mostly Cloudy
4:24 AM 42.8 °F 38.6 °F 42.8 °F 100% 29.71 in 10.0 mi SW 6.9 mph - N/A Rain Light Rain
4:39 AM 42.8 °F 35.4 °F 42.8 °F 100% 29.72 in 8.0 mi WSW 15.0 mph 20.7 mph N/A Rain Light Rain
4:49 AM 42.8 °F 38.0 °F 42.8 °F 100% 29.70 in 9.0 mi WSW 8.1 mph 20.7 mph N/A Rain Light Rain
4:56 AM 42.8 °F 38.0 °F 42.8 °F 100% 29.71 in 10.0 mi WSW 8.1 mph - N/A   Mostly Cloudy
4:58 AM 42.8 °F 38.0 °F 42.8 °F 100% 29.73 in 10.0 mi WSW 8.1 mph - 0.00 in   Mostly Cloudy
5:58 AM 43.2 °F 38.4 °F 42.8 °F 99% 29.73 in 10.0 mi WSW 8.1 mph - N/A   Scattered Clouds
6:58 AM 43.2 °F 39.0 °F 40.6 °F 91% 29.75 in 10.0 mi West 6.9 mph - N/A   Overcast
7:13 AM 42.8 °F 37.0 °F 41.0 °F 93% 29.73 in 10.0 mi West 10.4 mph - N/A Rain Light Rain
7:24 AM 42.8 °F 39.3 °F 41.0 °F 93% 29.73 in 10.0 mi West 5.8 mph - N/A   Overcast
7:58 AM 43.2 °F 39.7 °F 39.7 °F 88% 29.75 in 10.0 mi West 5.8 mph - 0.00 in   Mostly Cloudy
8:58 AM 43.0 °F 39.5 °F 38.5 °F 84% 29.76 in 10.0 mi WSW 5.8 mph - N/A   Mostly Cloudy
9:58 AM 45.0 °F 39.3 °F 36.7 °F 73% 29.74 in 10.0 mi West 11.5 mph 19.6 mph N/A   Mostly Cloudy
10:58 AM 45.3 °F 39.0 °F 36.7 °F 72% 29.75 in 10.0 mi West 13.8 mph 18.4 mph N/A   Mostly Cloudy
11:13 AM 44.6 °F 36.9 °F 37.4 °F 76% 29.73 in 10.0 mi West 18.4 mph 26.5 mph N/A   Overcast
11:24 AM 44.6 °F 38.8 °F 37.4 °F 76% 29.73 in 10.0 mi West 11.5 mph 23.0 mph N/A   Light Drizzle
11:33 AM 44.6 °F 39.2 °F 37.4 °F 76% 29.73 in 10.0 mi West 10.4 mph 19.6 mph N/A   Mostly Cloudy
11:38 AM 44.6 °F 38.4 °F 37.4 °F 76% 29.73 in 10.0 mi West 12.7 mph 19.6 mph N/A   Mostly Cloudy
11:43 AM 44.6 °F 38.4 °F 35.6 °F 71% 29.73 in 10.0 mi West 12.7 mph 21.9 mph N/A   Mostly Cloudy
11:51 AM 44.6 °F 38.4 °F 37.4 °F 76% 29.72 in 10.0 mi West 12.7 mph 21.9 mph N/A   Light Drizzle
11:58 AM 44.1 °F 37.4 °F 37.0 °F 76% 29.75 in 10.0 mi West 13.8 mph 19.6 mph 0.00 in Rain Light Rain
12:58 PM 43.0 °F 37.2 °F 39.2 °F 86% 29.74 in 10.0 mi West 10.4 mph 20.7 mph 0.00 in   Light Drizzle
1:08 PM 42.8 °F 36.2 °F 39.2 °F 87% 29.72 in 10.0 mi West 12.7 mph 18.4 mph N/A Rain Light Rain
1:18 PM 42.8 °F 35.4 °F 39.2 °F 87% 29.72 in 10.0 mi West 15.0 mph 28.8 mph N/A   Light Drizzle
1:35 PM 44.6 °F 38.4 °F 39.2 °F 81% 29.72 in 10.0 mi West 12.7 mph 21.9 mph N/A   Mostly Cloudy
1:58 PM 44.8 °F 39.0 °F 38.3 °F 78% 29.74 in 10.0 mi West 11.5 mph 25.3 mph 0.00 in   Overcast
2:58 PM 45.0 °F 37.9 °F 36.5 °F 72% 29.75 in 10.0 mi West 16.1 mph 27.6 mph N/A   Mostly Cloudy
3:01 PM 44.6 °F 37.2 °F 37.4 °F 76% 29.73 in 10.0 mi West 17.3 mph 27.6 mph N/A   Light Drizzle
3:10 PM 44.6 °F 36.6 °F 37.4 °F 76% 29.73 in 10.0 mi West 19.6 mph 26.5 mph N/A   Mostly Cloudy
3:58 PM 42.1 °F 34.9 °F 36.5 °F 81% 29.77 in 10.0 mi West 13.8 mph 21.9 mph 0.00 in   Overcast
4:23 PM 42.8 °F 34.3 °F 35.6 °F 76% 29.77 in 10.0 mi West 19.6 mph 27.6 mph N/A   Mostly Cloudy
4:33 PM 42.8 °F 35.1 °F 33.8 °F 70% 29.77 in 10.0 mi West 16.1 mph 27.6 mph N/A   Mostly Cloudy
4:58 PM 41.5 °F 33.2 °F 33.3 °F 72% 29.81 in 10.0 mi West 17.3 mph 27.6 mph N/A   Scattered Clouds
5:18 PM 41.0 °F 33.5 °F 32.0 °F 70% 29.80 in 10.0 mi West 13.8 mph 26.5 mph N/A   Mostly Cloudy
5:43 PM 41.0 °F 33.9 °F 32.0 °F 70% 29.82 in 10.0 mi West 12.7 mph 20.7 mph N/A   Mostly Cloudy
5:58 PM 39.9 °F 33.4 °F 32.5 °F 75% 29.85 in 10.0 mi West 10.4 mph 17.3 mph N/A   Scattered Clouds
6:08 PM 39.2 °F 31.2 °F 32.0 °F 75% 29.84 in 10.0 mi West 13.8 mph 26.5 mph N/A   Mostly Cloudy
6:09 PM 39.2 °F 30.8 °F 32.0 °F 75% 29.84 in 10.0 mi West 15.0 mph 29.9 mph N/A   Light Drizzle
6:14 PM 39.2 °F 30.5 °F 32.0 °F 75% 29.84 in 10.0 mi West 16.1 mph 29.9 mph N/A   Light Drizzle
6:19 PM 39.2 °F 30.5 °F 32.0 °F 75% 29.85 in 10.0 mi West 16.1 mph 26.5 mph N/A   Light Drizzle
6:22 PM 39.2 °F 31.2 °F 32.0 °F 75% 29.85 in 10.0 mi West 13.8 mph 26.5 mph N/A   Overcast
6:27 PM 39.2 °F 30.2 °F 30.2 °F 70% 29.85 in 10.0 mi West 17.3 mph 26.5 mph N/A   Overcast
6:58 PM 38.8 °F 30.8 °F 30.0 °F 71% 29.90 in 10.0 mi West 13.8 mph 28.8 mph 0.00 in   Overcast
7:58 PM 37.0 °F 28.5 °F 29.5 °F 74% 29.94 in 10.0 mi West 13.8 mph 20.7 mph N/A   Mostly Cloudy
8:08 PM 37.4 °F 29.3 °F 28.4 °F 70% 29.92 in 10.0 mi West 12.7 mph 24.2 mph N/A   Overcast
8:28 PM 37.4 °F 28.5 °F 28.4 °F 70% 29.93 in 10.0 mi WNW 15.0 mph 23.0 mph N/A   Overcast
8:58 PM 36.7 °F 28.9 °F 28.0 °F 71% 29.97 in 10.0 mi West 11.5 mph 20.7 mph N/A   Overcast
9:58 PM 36.9 °F 29.6 °F 27.9 °F 70% 30.00 in 10.0 mi West 10.4 mph 24.2 mph N/A   Overcast
10:58 PM 36.7 °F 29.4 °F 27.3 °F 69% 30.03 in 10.0 mi WNW 10.4 mph - N/A   Overcast
11:58 PM 36.7 °F 29.4 °F 27.0 °F 68% 30.06 in 10.0 mi West 10.4 mph - N/A   Overcast